Tracking 35275 objects as of 8-Sep-2026
HD Live streaming from Space Station
objects crossing your sky now

JSSW-3


JSSW-3 is no longer on orbit


NORAD ID: 9394
Int'l Code: 1976-087A
Launch date: August 30, 1976
Source: People's Republic of China (PRC)
Launch site: Jiuquan Satellite Launch Center, China (JSC)
Decay date: 1978-11-25
Your satellite tracking list
Your tracking list is empty




NASA's NSSDC Master Catalog

Two Line Element Set (TLE):
1 09394U 76087  A 78329.55225755  .06937707 +00000-0 +00000-0 0  9997
2 09394 069.0620 357.8639 0059415 247.1600 116.8160 16.42773388114946
Source of the keplerian elements: AFSPC